Flag for Denmark Weather past 2 weeks in Aarhus, Denmark

Now
39 °F

Passing clouds.


Feels Like: 32 °F
Forecast: 35 / 42 °F
Wind: 10 mph from South

Location: Tirstrup

Current Time: Mar 1, 2015 at 2:36:59 AM

Latest Report: Mar 1, 2015 at 2:20 AM


Visibility: N/A

Pressure: 29.56 "Hg

Humidity: 70%

Dew point: 30 °F

Location of AarhusLocation

Historic Weather in Aarhus — Graph

°F

Aarhus temperature yesterday

Maximum temperature yesterday: 43 °F (at 2:20 PM)
Minimum temperature yesterday: 28 °F (at 1:50 AM)
Average temperature yesterday: 36 °F

Past Weeks' High & Low Weather Summary

 TemperatureHumidityPressure
High46 °F (Feb 18, 11:20 AM)93% (Feb 14, 4:20 AM)30.48 "Hg (Feb 14, 4:20 AM)
Low28 °F (Feb 28, 1:50 AM)57% (Feb 18, 11:20 AM)29.15 "Hg (Feb 23, 9:20 AM)
Average38 °F82%29.88 "Hg
* Reported Feb 14 1:20 AM — Mar 1 1:20 AM, Aarhus, Weather by CustomWeather, © 2015

Note: Actual official high and low records may vary slightly from our data, if they occured in-between our weather recording intervals... More about our weather records

Advertising

Aarhus weather history for previous 24 hours

 ConditionsComfort  
Time TempWeatherWind HumidityBarometerVisibility
1:20 AM
Sun, Mar 1
39 °FPassing clouds.10 mph70%29.59 "HgN/A
12:50 AM39 °FPassing clouds.12 mph70%29.62 "HgN/A
12:20 AM39 °FPassing clouds.12 mph70%29.65 "HgN/A
11:50 PM
Sat, Feb 28
39 °FPassing clouds.12 mph70%29.65 "HgN/A
11:20 PM39 °FPassing clouds.12 mph70%29.68 "HgN/A
10:50 PM39 °FOvercast.10 mph70%29.71 "HgN/A
10:20 PM39 °FPassing clouds.12 mph70%29.71 "HgN/A
9:50 PM39 °FPassing clouds.12 mph70%29.74 "HgN/A
9:20 PM39 °FOvercast.12 mph70%29.77 "HgN/A
8:50 PM39 °FOvercast.12 mph70%29.77 "HgN/A
8:20 PM39 °FOvercast.9 mph75%29.80 "HgN/A
7:50 PM39 °FPassing clouds.9 mph70%29.80 "HgN/A
7:20 PM39 °FPassing clouds.8 mph70%29.80 "HgN/A
6:50 PM39 °FPassing clouds.8 mph70%29.83 "HgN/A
6:20 PM39 °FPassing clouds.7 mph70%29.83 "HgN/A
5:50 PM41 °FPassing clouds.8 mph66%29.83 "HgN/A
5:20 PM41 °FScattered clouds.8 mph70%29.83 "HgN/A
4:50 PM41 °FScattered clouds.9 mph70%29.86 "HgN/A
4:20 PM41 °FScattered clouds.10 mph70%29.86 "HgN/A
3:50 PM43 °FScattered clouds.9 mph66%29.86 "HgN/A
3:20 PM43 °FScattered clouds.9 mph66%29.86 "HgN/A
2:50 PM43 °FPartly sunny.9 mph66%29.89 "HgN/A
2:20 PM43 °FPartly sunny.10 mph66%29.89 "HgN/A
1:50 PM41 °FPartly sunny.9 mph70%29.92 "HgN/A
1:20 PM41 °FPartly sunny.9 mph70%29.92 "HgN/A
12:50 PM41 °FQuite cool.9 mph70%29.92 "HgN/A
12:20 PM41 °FQuite cool.9 mph70%29.95 "HgN/A
11:50 AM41 °FQuite cool.9 mph70%29.95 "HgN/A
11:20 AM41 °FScattered clouds.7 mph70%29.95 "HgN/A
10:50 AM39 °FPartly sunny.6 mph70%29.95 "HgN/A
10:20 AM37 °FOvercast.6 mph81%29.98 "HgN/A
9:50 AM37 °FOvercast.6 mph81%29.98 "HgN/A
9:20 AM36 °FPartly sunny.3 mph87%29.98 "HgN/A
8:50 AM34 °FOvercast.3 mph93%29.98 "HgN/A
8:20 AM32 °FOvercast.2 mph93%29.98 "HgN/A
7:50 AM32 °FPartly sunny.2 mph93%29.98 "HgN/A
7:20 AM32 °FScattered clouds.3 mph93%29.98 "HgN/A
6:50 AM32 °FPassing clouds.3 mph87%29.98 "HgN/A
6:20 AM28 °FPassing clouds.3 mph93%29.98 "HgN/A
5:50 AM28 °FPassing clouds.3 mph93%29.98 "Hg6 mi
5:20 AM28 °FIce fog.1 mph93%29.98 "Hg1 mi
4:20 AM28 °FIce fog.1 mph93%29.98 "Hg1 mi
3:50 AM28 °FIce fog.2 mph93%30.01 "Hg0 mi
3:20 AM28 °FIce fog.1 mph93%30.01 "Hg0 mi
2:50 AM28 °FIce fog.1 mph93%30.01 "Hg0 mi
2:20 AM28 °FIce fog.No wind93%30.01 "Hg0 mi
Weather by CustomWeather, © 2015

See weather overviewHow to use our weather pages